Other Surface Observations
Issued by NWS

Home | Current Version | Previous Version | Text Only | Print | Product List | Glossary On
Versions: 1 2 3 4 5 6 7 8 9 10 11 12 13 14 15 16 17 18 19 20 21 22 23 24 25 26 27 28 29 30 31 32 33 34 35 36 37 38 39 40 41 42 43 44 45 46 47 48 49 50
000
SXUS52 KTAE 300218
OSOTAE
OSOTAE
North Florida/South Alabama/Southwest Georgia Weather Roundup
National Weather Service Tallahassee Florida
1000 PM EDT SAT AUG 29 2015

Note: "fair" indicates few or no clouds below 12,000 feet with no
significant weather and/or obstructions to visibility.

!FLZ017-115-028-034-025-300300
...North Florida...

CITY           SKY/WX    TMP DP  RH WIND       PRES   REMARKS
TALLAHASSEE    MOCLDY    76  72  87 CALM      30.08R
APALACHICOLA   MOCLDY    73  72  96 NE6       30.06R
PERRY          CLOUDY   N/A N/A N/A E3        30.08R
CROSS CITY       N/A     77  73  87 NE3       30.06R
JACKSONVILLE   CLOUDY    78  76  93 NE5       30.07R
$$

!FLZ112-006-005-002-011-300300
...Florida Panhandle...

CITY           SKY/WX    TMP DP  RH WIND       PRES   REMARKS
MARIANNA       MOCLDY    74  74 100 W3        30.07R
BONIFAY        FAIR      73  70  90 CALM      30.08S
PANAMA CITY NW MOCLDY    74  71  91 N5        30.06R
TYNDALL AFB    DRIZZLE   75  72  91 NE3       30.06R
TYND DRONE APT CLOUDY    75  72  89 NE7       30.06R
DE FUNIAK SPR  FAIR      71  70  94 E3        30.08S
EGLIN AFB      PTCLDY    76  69  79 NE2       30.06R
DESTIN         PTCLDY    77  70  79 NE6       30.06R
HURLBURT       CLEAR     76  68  76 N6        30.05R
CRESTVIEW      MOCLDY    72  70  93 NE6       30.09R
PENSACOLA      CLEAR     76  68  76 CALM      30.04R
$$

!ALZ063-066-300300
...South Alabama...

CITY           SKY/WX    TMP DP  RH WIND       PRES   REMARKS
DOTHAN         HVY RAIN  71  70  96 N6        30.13R FOG
OZARK CAIRNS   MOCLDY    74  69  87 NW5       30.08R
FT RUCKER HELI CLOUDY    74  69  85 NW6       30.08R
RUCKER HELI 3  MOCLDY    72  70  94 NW3       30.11R
RUCKER HELI 2  NOT AVBL
FLORALA APT    LGT RAIN  70  68  93 N7        30.10R
ANDALUSIA      LGT RAIN  74  70  87 E9        30.07F
TROY           CLOUDY    73  71  93 CALM      30.10F
EUFALA         CLOUDY    73  72  96 CALM      30.07S
MOBILE         PTCLDY    78  72  81 SE3       30.04R
$$

!GAZ120>161-300300
...Southwest and South Central Georgia...

CITY           SKY/WX    TMP DP  RH WIND       PRES   REMARKS
THOMASVILLE    FAIR      72  72 100 CALM      30.09R
BAINBRIDGE     PTCLDY    73  72  94 CALM      30.08R
MOODY AFB      CLOUDY    73  71  93 E7        30.07R
VALDOSTA       CLOUDY    73  72  96 SE3       30.08R
MOULTRIE       MOCLDY    72  72 100 CALM      30.09R
BLAKELY        MOCLDY    73  73 100 CALM      30.08R
ALBANY         PTCLDY    75  71  87 E6        30.10R
TIFTON         MOCLDY    73  72  98 E3        30.09R
FITZGERALD     MOCLDY    75  74  95 E5        30.12R
CORDELE        FAIR      77  74  88 E5        30.11R
AMERICUS       FAIR      73  73 100 E3        30.12R
HOMERVILLE     FAIR      73  73 100 CALM      30.09S
$$

!GMZ750-755-770-775-300300
...Coastal and Buoy Obs...

STATION/POSITION TIME  TEMP    WIND        PRES    VSBY  WAVE
                       AIR SEA DIR/SP/G                  HT/PER
                 (UTC) (F)     (DEG/KT/KT) (MB)    (MI)  (FT/S)
KEATON BEACH     0200   75      40/  6/  9 1017.9R
CEDAR KEY        0200   77      20/  5/  7 1018.2R
C TOWER          0200   81      80/  6/  7 1017.8R
APALACHICOLA BUO 0150   82 86   60/ 10/ 12 1017.2R         1/ 4
PANAMA CITY BUOY 0150   81 85   60/  8/ 10 1017.5R         2/ 4
MOBILE BUOY      0150   83 86  140/  2/  2 1016.8R         2/ 6
ORANGE BCH AL BU 0150   83 86  140/  8/ 10 1016.3R         2/ 6
$$



USA.gov is the U.S. government's official web portal to all federal, state and local government web resources and services.